Погода в Хебе

Чехия     50°04′25″N   12°22′18″E
темп.,
°C
ветер,
м/с
пор.,
м/с
влажн.,
%
обл.,
%
осадки,
мм/ч
давл.,
гПа
погр.,
м
21 января, чт
чт2101:00−1ю2393100 0.0 100550
04:00−1ююз359397 0.0 1004109
07:00−2ююз249399 0.0 1004115
10:00+1ююз41581100 0.0 1003469
13:00+3ююз51877100 0.1 10021028
16:00+4ююз41690100 0.6 1002938
19:00+3ююз41393100 0.9 1002598
22:00+1ююз31194100 0.2 1001339
22 января, пт
пт2201:00−1ююз2294100 0.3 99952
04:000юз41189100 0.0 998343
07:00+2ююз31693100 0.1 997796
10:00+3юз515891 0.0 995951
13:00+4юз5149347 0.1 995797
16:00+4ююз31096100 0.1 995397
19:00+1ю2297100 0.1 99526
22:00+1всв2294100 0.0 99426
23 января, сб
сб2301:00+1ссв2595100 0.0 993121
04:00+1с3698100 0.5 992251
07:00+1ссз51198100 4.6 992527
10:00−1ссз51196100 5.0 994634
13:000сз4891100 6.8 997704
16:000зсз2597100 0.4 997350
19:00−2зюз1198100 0.6 99921
22:00−4ююз129799 0.0 99921
24 января, вс
вс2401:00−4ю129799 0.0 99921
04:00−4ююв1195100 0.0 99821
07:00−3ю1295100 0.0 99837
10:00−1ююв2494100 0.4 999345
13:00−1юз1397100 2.1 999272
16:00−1зсз4992100 3.8 1000777
19:00−3з389698 4.0 1002404
22:00−3з259287 0.0 1003377
25 января, пн
пн2501:00−5з119594 0.0 100422
04:00−6ююз129794 0.0 100522
07:00−7юз119789 0.0 100721
10:00−4юз1193100 0.1 1009131
13:00−1зюз248793 0.1 1009579
16:00−2зюз368884 0.1 1011596
19:00−5юз239790 0.1 101278
22:00−3юз3796100 0.2 1012390